TimeCST,TemperatureF,Dew PointF,Humidity,Sea Level PressureIn,VisibilityMPH,Wind Direction,Wind SpeedMPH,Gust SpeedMPH,PrecipitationIn,Events,Conditions,WindDirDegrees,DateUTC
12:07 AM,-9.4,-14.8,77,30.40,10.0,Calm,Calm,-,N/A,,Mostly Cloudy,0,2013-12-14 06:07:00
12:27 AM,-9.4,-14.8,77,30.40,10.0,Calm,Calm,-,N/A,,Mostly Cloudy,0,2013-12-14 06:27:00
12:47 AM,-9.4,-16.6,71,30.39,10.0,NE,3.5,-,N/A,,Overcast,50,2013-12-14 06:47:00
1:07 AM,-9.4,-14.8,77,30.39,10.0,ENE,3.5,-,N/A,,Overcast,60,2013-12-14 07:07:00
1:27 AM,-9.4,-16.6,71,30.39,10.0,Calm,Calm,-,N/A,,Mostly Cloudy,0,2013-12-14 07:27:00
1:47 AM,-9.4,-16.6,71,30.38,10.0,Calm,Calm,-,N/A,,Overcast,0,2013-12-14 07:47:00
2:07 AM,-9.4,-16.6,71,30.37,10.0,Calm,Calm,-,N/A,,Overcast,0,2013-12-14 08:07:00
2:27 AM,-11.2,-18.4,70,30.37,10.0,Calm,Calm,-,N/A,,Mostly Cloudy,0,2013-12-14 08:27:00
2:47 AM,-11.2,-18.4,70,30.37,10.0,Calm,Calm,-,N/A,,Mostly Cloudy,0,2013-12-14 08:47:00
3:07 AM,-11.2,-16.6,77,30.36,10.0,Calm,Calm,-,N/A,,Mostly Cloudy,0,2013-12-14 09:07:00
3:27 AM,-11.2,-18.4,70,30.36,10.0,Calm,Calm,-,N/A,,Overcast,0,2013-12-14 09:27:00
3:47 AM,-11.2,-16.6,77,30.35,10.0,Calm,Calm,-,N/A,,Overcast,0,2013-12-14 09:47:00
4:07 AM,-9.4,-16.6,71,30.35,10.0,Calm,Calm,-,N/A,,Overcast,0,2013-12-14 10:07:00
4:27 AM,-9.4,-16.6,71,30.34,10.0,Calm,Calm,-,N/A,,Overcast,0,2013-12-14 10:27:00
4:47 AM,-9.4,-16.6,71,30.33,10.0,Calm,Calm,-,N/A,,Overcast,0,2013-12-14 10:47:00
5:07 AM,-9.4,-16.6,71,30.32,10.0,Calm,Calm,-,N/A,,Overcast,0,2013-12-14 11:07:00
5:27 AM,-9.4,-16.6,71,30.31,10.0,Calm,Calm,-,N/A,,Overcast,0,2013-12-14 11:27:00
5:47 AM,-9.4,-16.6,71,30.32,10.0,Calm,Calm,-,N/A,,Overcast,0,2013-12-14 11:47:00
6:07 AM,-9.4,-14.8,77,30.31,7.0,Calm,Calm,-,N/A,Snow,Light Snow,0,2013-12-14 12:07:00
6:27 AM,-9.4,-14.8,77,30.31,7.0,Calm,Calm,-,N/A,Snow,Light Snow,0,2013-12-14 12:27:00
6:47 AM,-9.4,-14.8,77,30.31,2.0,Calm,Calm,-,N/A,Snow,Light Snow,0,2013-12-14 12:47:00
7:07 AM,-9.4,-14.8,77,30.30,2.0,Calm,Calm,-,N/A,Snow,Light Snow,0,2013-12-14 13:07:00
7:27 AM,-9.4,-14.8,77,30.29,1.2,Calm,Calm,-,N/A,Snow,Light Snow,0,2013-12-14 13:27:00
7:47 AM,-9.4,-14.8,77,30.29,1.5,Calm,Calm,-,N/A,Snow,Light Snow,0,2013-12-14 13:47:00
8:07 AM,-9.4,-14.8,77,30.28,1.8,Calm,Calm,-,N/A,Snow,Light Snow,0,2013-12-14 14:07:00
8:27 AM,-7.6,-14.8,71,30.28,1.2,Calm,Calm,-,N/A,Snow,Light Snow,0,2013-12-14 14:27:00
8:47 AM,-7.6,-13.0,77,30.27,1.0,Calm,Calm,-,N/A,Snow,Light Snow,0,2013-12-14 14:47:00
9:07 AM,-7.6,-11.2,84,30.26,1.8,Calm,Calm,-,N/A,Snow,Light Snow,0,2013-12-14 15:07:00
9:27 AM,-5.8,-11.2,77,30.25,1.5,Calm,Calm,-,0.01,Snow,Light Snow,0,2013-12-14 15:27:00
9:47 AM,-5.8,-11.2,77,30.23,1.5,Calm,Calm,-,0.01,Snow,Light Snow,0,2013-12-14 15:47:00
10:07 AM,-2.2,-9.4,71,30.23,1.2,Calm,Calm,-,N/A,Snow,Light Snow,0,2013-12-14 16:07:00
10:27 AM,-2.2,-9.4,71,30.22,1.5,Calm,Calm,-,N/A,Snow,Light Snow,0,2013-12-14 16:27:00
10:47 AM,-2.2,-7.6,78,30.20,3.0,Calm,Calm,-,N/A,Snow,Light Snow,0,2013-12-14 16:47:00
11:07 AM,-0.4,-5.8,78,30.19,2.5,Calm,Calm,-,N/A,Snow,Light Snow,0,2013-12-14 17:07:00
11:27 AM,1.4,-4.0,78,30.17,2.0,Calm,Calm,-,N/A,Snow,Light Snow,0,2013-12-14 17:27:00
11:47 AM,1.4,-2.2,85,30.16,2.0,Calm,Calm,-,N/A,Snow,Light Snow,0,2013-12-14 17:47:00
12:07 PM,3.2,-2.2,78,30.14,2.5,Calm,Calm,-,N/A,Snow,Light Snow,0,2013-12-14 18:07:00
12:27 PM,1.4,-4.0,78,30.13,3.0,Calm,Calm,-,N/A,Snow,Light Snow,0,2013-12-14 18:27:00
12:47 PM,1.4,-2.2,85,30.11,5.0,Calm,Calm,-,N/A,Snow,Light Snow,0,2013-12-14 18:47:00
1:07 PM,1.4,-2.2,85,30.09,1.8,Calm,Calm,-,N/A,Snow,Light Snow,0,2013-12-14 19:07:00
1:27 PM,1.4,-2.2,85,30.08,1.2,NNW,3.5,-,N/A,Snow,Light Snow,340,2013-12-14 19:27:00
1:47 PM,1.4,-2.2,85,30.08,1.2,Calm,Calm,-,N/A,Snow,Light Snow,0,2013-12-14 19:47:00
2:07 PM,3.2,-2.2,78,30.06,1.5,Calm,Calm,-,N/A,Snow,Light Snow,0,2013-12-14 20:07:00
2:27 PM,3.2,-2.2,78,30.05,2.0,Calm,Calm,-,N/A,Snow,Light Snow,0,2013-12-14 20:27:00
2:47 PM,3.2,-2.2,78,30.05,3.0,Calm,Calm,-,N/A,Snow,Light Snow,0,2013-12-14 20:47:00
3:07 PM,1.4,-2.2,85,30.06,2.0,Calm,Calm,-,N/A,Snow,Light Snow,0,2013-12-14 21:07:00
3:27 PM,1.4,-2.2,85,30.06,1.0,Calm,Calm,-,N/A,Snow,Light Snow,0,2013-12-14 21:27:00
3:47 PM,1.4,-2.2,85,30.05,1.2,Calm,Calm,-,N/A,Snow,Light Snow,0,2013-12-14 21:47:00
4:07 PM,1.4,-2.2,85,30.04,1.2,Calm,Calm,-,N/A,Snow,Light Snow,0,2013-12-14 22:07:00
4:27 PM,1.4,-2.2,85,30.04,1.8,Calm,Calm,-,N/A,Snow,Light Snow,0,2013-12-14 22:27:00
4:47 PM,1.4,-2.2,85,30.04,1.5,Calm,Calm,-,N/A,Snow,Light Snow,0,2013-12-14 22:47:00
5:07 PM,1.4,-2.2,85,30.04,1.5,NW,3.5,-,N/A,Snow,Light Snow,320,2013-12-14 23:07:00
5:27 PM,1.4,-2.2,85,30.04,2.0,NW,6.9,-,N/A,Snow,Light Snow,320,2013-12-14 23:27:00
5:47 PM,1.4,-2.2,85,30.04,2.0,NNW,3.5,-,N/A,Snow,Light Snow,330,2013-12-14 23:47:00
6:07 PM,-0.4,-2.2,92,30.03,2.0,NW,4.6,-,N/A,Snow,Light Snow,310,2013-12-15 00:07:00
6:27 PM,-0.4,-2.2,92,30.03,2.5,NW,4.6,-,N/A,Snow,Light Snow,310,2013-12-15 00:27:00
6:47 PM,-0.4,-2.2,92,30.03,3.0,NW,4.6,-,N/A,Snow,Light Snow,320,2013-12-15 00:47:00
7:07 PM,-0.4,-4.0,85,30.03,4.0,NNW,3.5,-,N/A,Snow,Light Snow,330,2013-12-15 01:07:00
7:27 PM,-0.4,-4.0,85,30.03,3.0,NW,3.5,-,N/A,Snow,Light Snow,320,2013-12-15 01:27:00
7:47 PM,-2.2,-5.8,85,30.03,4.0,NW,3.5,-,N/A,Snow,Light Snow,320,2013-12-15 01:47:00
8:07 PM,-2.2,-5.8,85,30.03,7.0,NW,3.5,-,N/A,Snow,Light Snow,320,2013-12-15 02:07:00
8:27 PM,-2.2,-7.6,78,30.03,7.0,NW,3.5,-,N/A,Snow,Light Snow,320,2013-12-15 02:27:00
8:47 PM,-4.0,-7.6,85,30.02,10.0,NNW,3.5,-,N/A,,Scattered Clouds,330,2013-12-15 02:47:00
9:07 PM,-5.8,-9.4,84,30.03,10.0,Calm,Calm,-,N/A,,Clear,0,2013-12-15 03:07:00
9:27 PM,-5.8,-9.4,84,30.03,10.0,NW,3.5,-,N/A,,Scattered Clouds,320,2013-12-15 03:27:00
9:47 PM,-7.6,-9.4,92,30.03,10.0,Calm,Calm,-,N/A,,Scattered Clouds,0,2013-12-15 03:47:00
10:07 PM,-7.6,-11.2,84,30.04,10.0,NNW,3.5,-,N/A,,Clear,330,2013-12-15 04:07:00
10:27 PM,-7.6,-11.2,84,30.04,10.0,NNW,3.5,-,N/A,,Clear,330,2013-12-15 04:27:00
10:47 PM,-7.6,-11.2,84,30.05,10.0,NNW,4.6,-,N/A,,Scattered Clouds,330,2013-12-15 04:47:00
11:07 PM,-7.6,-11.2,84,30.05,10.0,NW,6.9,-,N/A,,Overcast,320,2013-12-15 05:07:00
11:27 PM,-9.4,-13.0,84,30.06,10.0,NNW,5.8,-,N/A,,Mostly Cloudy,330,2013-12-15 05:27:00
11:47 PM,-9.4,-14.8,77,30.06,10.0,NNW,4.6,-,N/A,,Clear,330,2013-12-15 05:47:00